www.pogodaiklimat.ru

Погода и климат >> Архив погоды >> Гренландия >> Ikermiuarsuk


ПОГОДА в Ikermiuarsuk

  • Прогноз погоды в Ikermiuarsuk
  • Монитор погоды в Ikermiuarsuk

АРХИВ ПОГОДЫ в Ikermiuarsuk

Время (UTC), дата Ветер
(напр.,м/с)
 
Видим.   Явления Облачность Т
(С)
Тd
(С)
f
(%)
Тe
(С)
Тes
(С)
Комфортность P
(гПа)
Po
(гПа)
Тmin
(С)
Tmax
(С)
R
(мм)
R24
(мм)
S
(см)
13 14.08 С 2 н/о н/о +2.6 +2.2 97 -1 -1 1015.9 1010.9
14 14.08 н/о н/о +3.3 +2.8 97 1016.0 1011.0
15 14.08 СЗ 3 н/о н/о +4.0 +2.6 91 +1 +1 1015.7 1010.7
16 14.08 С 2 н/о н/о +4.8 +3.3 90 +3 +3 1015.3 1010.3
17 14.08 ЮВ 1 н/о н/о +6.1 +4.1 87 +5 +5 1015.2 1010.2
18 14.08 ЮВ 1 н/о н/о +6.1 +4.4 89 +5 +5 1014.8 1009.8
19 14.08 Ю 2 н/о н/о +5.6 +3.6 87 +4 +4 1014.7 1009.7
20 14.08 ЮВ 2 н/о н/о +6.0 +4.0 87 +4 +4 1014.4 1009.4
21 14.08 ЮВ 2 н/о н/о +5.7 +3.7 87 +3 +3 1014.0 1009.0
22 14.08 ЮВ 2 н/о н/о +5.1 +4.5 96 +2 +2 1013.9 1008.9
23 14.08 Ю 2 н/о н/о +5.0 +4.5 97 +3 +3 1013.9 1008.9
00 15.08 З 1 н/о н/о +5.2 +3.7 90 +5 +5 1013.9 1008.9
01 15.08 С 2 н/о н/о +4.7 +4.1 96 +2 +2 1013.8 1008.8
02 15.08 С 4 н/о н/о +4.1 +2.1 87 -0 -0 1013.7 1008.7
03 15.08 С 7 н/о н/о +4.8 +2.8 87 -1 -1 1013.3 1008.3
04 15.08 С 6 н/о н/о +4.3 +2.5 88 -1 -1 1013.3 1008.3
05 15.08 С 4 н/о н/о +3.2 +2.9 98 -2 -2 1013.3 1008.3
06 15.08 С 4 н/о н/о +3.2 +2.6 96 -2 -2 1012.8 1007.9
07 15.08 С 3 н/о н/о +3.7 +2.7 93 -0 -0 1012.9 1008.0
08 15.08 С 4 н/о н/о +3.4 +1.3 86 -1 -1 1012.9 1008.0
09 15.08 н/о н/о +4.5 +0.4 75 1012.9 1008.0
10 15.08 С 6 н/о н/о +5.6 +0.9 72 +1 +1 1013.0 1008.1
11 15.08 С 6 н/о н/о +7.4 +0.8 63 +4 +4 1013.3 1008.3
12 15.08 СЗ 2 н/о н/о +7.8 +0.9 62 +6 +6 1013.3 1008.3
13 15.08 С 3 н/о н/о +9.2 -1.0 49 +7 +7 1013.0 1008.1
14 15.08 ЮЗ 2 н/о н/о +8.2 +0.9 60 +7 +7 1012.9 1008.0
15 15.08 ЮЗ 2 н/о н/о +9.4 +1.3 57 +9 +9 1012.6 1007.7
16 15.08 ЮЗ 2 н/о н/о +9.1 0.0 53 +8 +8 1012.3 1007.4
17 15.08 Ю 2 н/о н/о +9.2 +0.8 56 +8 +8 1012.2 1007.3
18 15.08 Ю 3 н/о н/о +8.9 +1.3 59 +7 +7 1011.9 1007.0
19 15.08 ЮЗ 4 н/о н/о +8.7 +1.1 59 +6 +6 1011.7 1006.8
20 15.08 Ю 1 н/о н/о +7.8 +3.0 72 +7 +7 1011.8 1006.9
21 15.08 ЮВ 4 н/о н/о +7.0 +4.1 82 +4 +4 1011.8 1006.9
22 15.08 Ю 2 н/о н/о +7.3 +2.7 73 +5 +5 1011.9 1007.0
23 15.08 ЮВ 2 н/о н/о +6.3 +3.2 81 +5 +5 1012.0 1007.1
00 16.08 З 1 н/о н/о +7.3 +0.7 63 +7 +7 1011.9 1007.0
01 16.08 З 2 н/о н/о +7.1 -1.1 56 +5 +5 1012.0 1007.1
02 16.08 З 2 н/о н/о +6.6 +1.9 72 +5 +5 1011.9 1007.0
03 16.08 СЗ 2 н/о н/о +6.5 -0.1 63 +5 +5 1011.9 1007.0
04 16.08 С 2 н/о н/о +5.7 +0.6 70 +3 +3 1011.8 1006.9
05 16.08 В 1 н/о н/о +5.7 +2.1 78 +5 +5 1011.8 1006.9
06 16.08 З 1 н/о н/о +6.5 -0.3 62 +6 +6 1011.8 1006.9
07 16.08 Ю 1 н/о н/о +5.5 +3.3 86 +4 +4 1011.9 1007.0
08 16.08 ЮЗ 1 н/о н/о +5.9 +1.0 71 +5 +5 1012.2 1007.3
09 16.08 ЮЗ 1 н/о н/о +6.7 -0.8 59 +6 +6 1012.3 1007.4
10 16.08 З 2 н/о н/о +6.7 -1.2 57 +5 +5 1012.5 1007.6
11 16.08 Ю 1 н/о н/о +7.9 +1.7 65 +8 +8 1012.7 1007.8
12 16.08 Ю 1 н/о н/о +8.9 +1.5 60 +10 +10 1013.0 1008.1
13 16.08 ЮЗ 1 н/о н/о +8.9 +0.3 55 +10 +10 1013.5 1008.5
14 16.08 Ю 1 н/о н/о +9.7 +1.0 55 +10 +10 1013.8 1008.8
15 16.08 З 1 н/о н/о +10.8 -1.0 44 +11 +11 1013.9 1008.9
16 16.08 ЮЗ 2 н/о н/о +9.9 +2.0 58 +9 +9 1014.0 1009.0
17 16.08 ЮЗ 1 н/о н/о +10.0 +0.5 52 +10 +10 1014.0 1009.0
18 16.08 ЮЗ 3 н/о н/о +10.3 +0.8 52 +9 +9 1014.1 1009.1
19 16.08 З 1 н/о н/о +11.7 +2.1 52 +12 +12 1014.3 1009.3
20 16.08 З 2 н/о н/о +11.5 +0.5 47 +11 +11 1014.6 1009.6
21 16.08 СЗ 2 н/о н/о +10.1 -1.6 44 +10 +10 1014.7 1009.7
22 16.08 СЗ 2 н/о н/о +9.1 -1.1 49 +8 +8 1014.7 1009.7
23 16.08 СЗ 2 н/о н/о +8.5 -0.6 53 +7 +7 1014.9 1009.9
00 17.08 СЗ 2 н/о н/о +8.6 +0.8 58 +8 +8 1015.1 1010.1
01 17.08 ЮЗ 2 н/о н/о +8.0 -0.5 55 +6 +6 1014.9 1009.9
02 17.08 З 2 н/о н/о +8.1 -0.9 53 +7 +7 1014.6 1009.6
03 17.08 ЮЗ 4 н/о н/о +6.6 +1.1 68 +3 +3 1014.2 1009.2
04 17.08 З 1 н/о н/о +7.0 +0.8 65 +6 +6 1013.9 1008.9
05 17.08 Ю 2 н/о н/о +7.0 +1.3 67 +6 +6 1013.6 1008.6
06 17.08 З 1 н/о н/о +6.5 +2.0 73 +7 +7 1013.4 1008.4
07 17.08 ЮЗ 1 н/о н/о +6.9 +1.6 69 +7 +7 1013.0 1008.1
08 17.08 ЮВ 2 н/о н/о +6.0 +1.9 75 +4 +4 1012.8 1007.9
09 17.08 Ю 1 н/о н/о +6.7 +3.1 78 +6 +6 1012.6 1007.7
10 17.08 ЮЗ 1 н/о н/о +7.1 +0.5 63 +6 +6 1012.3 1007.4
11 17.08 ЮЗ 1 н/о н/о +8.6 +1.2 60 +9 +9 1012.2 1007.3
12 17.08 В 1 н/о н/о +8.5 +1.1 60 +8 +8 1011.8 1006.9
13 17.08 ЮВ 1 н/о н/о +9.3 +0.9 56 +10 +10 1011.7 1006.8
14 17.08 Ю 3 н/о н/о +7.7 +3.3 74 +5 +5 1011.6 1006.7
15 17.08 Ю 4 н/о н/о +7.6 +4.5 81 +4 +4 1011.3 1006.4
16 17.08 Ю 4 н/о н/о +7.3 +5.2 87 +4 +4 1011.0 1006.1
17 17.08 Ю 5 н/о н/о +7.5 +5.4 87 +4 +4 1010.7 1005.8
18 17.08 Ю 5 н/о н/о +7.3 +5.4 88 +3 +3 1010.4 1005.5
19 17.08 Ю 6 н/о н/о +5.9 +5.1 95 +1 +1 1010.4 1005.5
20 17.08 Ю 6 н/о н/о +5.2 +4.7 97 -0 -0 1010.5 1005.6
21 17.08 Ю 5 н/о н/о +5.0 +4.7 98 0 0 1010.3 1005.4
22 17.08 ЮВ 6 н/о н/о +4.5 +4.3 99 -1 -1 1010.3 1005.4
23 17.08 Ю 5 н/о н/о +4.4 +4.4 100 -1 -1 1010.4 1005.5
00 18.08 Ю 5 н/о н/о +4.6 +4.6 100 -0 -0 1010.7 1005.8
01 18.08 ЮВ 3 н/о н/о +4.2 +4.2 100 +1 +1 1010.6 1005.7
02 18.08 ЮВ 1 н/о н/о +4.4 +4.4 100 +3 +3 1010.2 1005.3
03 18.08 СЗ 2 н/о н/о +3.7 +3.7 100 +1 +1 1010.4 1005.5
04 18.08 С 2 н/о н/о +3.2 +3.2 100 +1 +1 1010.3 1005.4
05 18.08 С 4 н/о н/о +2.3 +2.3 100 -3 -3 1010.0 1005.1
06 18.08 С 7 н/о н/о +3.2 +3.2 100 -3 -3 1009.8 1004.9
07 18.08 С 6 н/о н/о +3.3 +3.0 98 -3 -3 1009.8 1004.9
08 18.08 С 7 н/о н/о +5.5 +3.1 85 0 0 1010.0 1005.1
09 18.08 СЗ 6 н/о н/о +6.9 +3.5 79 +2 +2 1009.9 1005.0
10 18.08 С 8 н/о н/о +4.3 +2.5 88 -2 -2 1010.2 1005.3
11 18.08 С 8 н/о н/о +4.5 +1.8 83 -2 -2 1010.0 1005.1
12 18.08 С 8 н/о н/о +4.8 +2.0 82 -1 -1 1010.2 1005.3
13 18.08 н/о н/о +5.7 +1.8 76 1010.4 1005.5
14 18.08 С 8 н/о н/о +5.5 +2.8 83 -0 -0 1010.0 1005.1
15 18.08 С 7 н/о н/о +6.2 +3.7 84 +1 +1 1010.4 1005.5
16 18.08 С 5 н/о н/о +6.5 +3.4 81 +2 +2 1010.3 1005.4
17 18.08 С 4 н/о н/о +6.7 +3.5 80 +3 +3 1010.3 1005.4
18 18.08 С 5 н/о н/о +6.4 +3.5 82 +2 +2 1010.2 1005.3
19 18.08 С 7 н/о н/о +7.2 +2.6 73 +3 +3 1010.2 1005.3
20 18.08 С 7 н/о н/о +7.5 +2.3 70 +3 +3 1010.3 1005.4
21 18.08 С 5 н/о н/о +7.8 +2.0 67 +4 +4 1010.3 1005.4
22 18.08 С 6 н/о н/о +7.3 +1.3 66 +3 +3 1010.3 1005.4
23 18.08 С 5 н/о н/о +7.3 +1.1 65 +4 +4 1010.5 1005.6
00 19.08 С 5 н/о н/о +7.6 +1.0 63 +4 +4 1010.4 1005.5
01 19.08 СЗ 4 н/о н/о +6.8 +1.1 67 +4 +4 1010.2 1005.3
02 19.08 СЗ 6 н/о н/о +7.7 +1.5 65 +4 +4 1010.0 1005.1
03 19.08 СЗ 6 н/о н/о +7.6 +2.0 68 +4 +4 1009.7 1004.8
04 19.08 СЗ 7 н/о н/о +7.7 +2.9 72 +3 +3 1009.5 1004.6
05 19.08 СЗ 7 н/о н/о +7.1 +3.1 76 +3 +3 1009.1 1004.2
06 19.08 СЗ 8 н/о н/о +7.3 +3.3 76 +2 +2 1009.3 1004.4
07 19.08 С 8 н/о н/о +7.5 +3.1 74 +3 +3 1009.0 1004.1
09 19.08 С 7 н/о н/о +6.7 +2.2 73 +2 +2 1009.6 1004.7
10 19.08 С 8 н/о н/о +7.3 +2.0 69 +3 +3 1009.5 1004.6
11 19.08 С 8 н/о н/о +6.6 +2.1 73 +2 +2 1009.5 1004.6
12 19.08 С 8 н/о н/о +5.6 +3.7 88 -0 -0 1009.8 1004.9
13 19.08 С 9 н/о н/о +5.9 +3.5 85 0 0 1009.7 1004.8
14 19.08 С 11 н/о н/о +6.9 +3.3 78 +1 +1 1009.5 1004.6
15 19.08 С 11 н/о н/о +7.0 +3.6 79 +1 +1 1009.6 1004.7
16 19.08 С 11 н/о н/о +7.0 +3.4 78 +1 +1 1009.4 1004.5
17 19.08 С 11 н/о н/о +6.3 +4.6 89 -0 -0 1009.2 1004.3
18 19.08 С 10 н/о н/о +6.5 +4.3 86 +1 +1 1009.3 1004.4
19 19.08 С 10 н/о н/о +7.2 +4.8 85 +2 +2 1009.4 1004.5
20 19.08 С 10 н/о н/о +7.0 +3.9 81 +1 +1 1009.5 1004.6
21 19.08 С 10 н/о н/о +7.2 +3.4 77 +2 +2 1009.3 1004.4
22 19.08 С 11 н/о н/о +7.3 +3.5 77 +2 +2 1009.2 1004.3
23 19.08 С 10 н/о н/о +7.5 +2.9 73 +2 +2 1009.1 1004.2
00 20.08 С 10 н/о н/о +7.4 +3.0 74 +2 +2 1009.2 1004.3
01 20.08 С 9 н/о н/о +7.3 +2.5 72 +2 +2 1008.9 1004.0
02 20.08 С 10 н/о н/о +7.1 +2.9 75 +2 +2 1008.8 1003.9
03 20.08 С 8 н/о н/о +7.5 +2.5 71 +3 +3 1008.7 1003.8
04 20.08 С 10 н/о н/о +7.7 +1.9 67 +3 +3 1008.3 1003.4
05 20.08 С 8 н/о н/о +7.7 +1.9 67 +3 +3 1008.2 1003.3
06 20.08 С 9 н/о н/о +8.1 +2.9 70 +3 +3 1008.0 1003.1
07 20.08 С 9 н/о н/о +7.8 +2.8 71 +3 +3 1008.1 1003.2
08 20.08 С 8 н/о н/о +7.4 +3.0 74 +3 +3 1008.3 1003.4
09 20.08 С 8 н/о н/о +7.4 +2.8 73 +3 +3 1008.6 1003.7
10 20.08 С 7 н/о н/о +7.5 +3.3 75 +3 +3 1008.8 1003.9
11 20.08 С 9 н/о н/о +7.7 +2.9 72 +3 +3 1008.8 1003.9
12 20.08 С 9 н/о н/о +7.9 +2.7 70 +3 +3 1009.1 1004.2
13 20.08 С 8 н/о н/о +8.0 +2.4 68 +3 +3 1009.4 1004.5
14 20.08 С 8 н/о н/о +7.6 +1.6 66 +3 +3 1009.8 1004.9
15 20.08 С 7 н/о н/о +8.4 +1.7 63 +4 +4 1009.9 1005.0
16 20.08 С 7 н/о н/о +8.0 +2.2 67 +4 +4 1010.0 1005.1
17 20.08 С 6 н/о н/о +8.7 +2.4 65 +5 +5 1010.1 1005.2
18 20.08 С 5 н/о н/о +9.1 +1.9 61 +6 +6 1010.1 1005.2
19 20.08 С 4 н/о н/о +8.7 +2.2 64 +6 +6 1010.3 1005.4
20 20.08 С 4 н/о н/о +8.5 +2.0 64 +6 +6 1010.4 1005.5
21 20.08 СЗ 3 н/о н/о +7.6 +1.8 67 +5 +5 1010.7 1005.8
22 20.08 СЗ 3 н/о н/о +7.4 +1.2 65 +5 +5 1010.9 1006.0
23 20.08 СЗ 2 н/о н/о +7.4 +0.6 62 +6 +6 1011.3 1006.4
00 21.08 З 2 н/о н/о +7.1 +0.5 63 +6 +6 1011.6 1006.7
01 21.08 С 2 н/о н/о +7.0 +0.6 64 +6 +6 1011.6 1006.7
02 21.08 СЗ 2 н/о н/о +6.7 +1.6 70 +5 +5 1011.9 1007.0
03 21.08 СЗ 3 н/о н/о +6.1 +0.2 66 +4 +4 1012.1 1007.2
04 21.08 С 5 н/о н/о +6.3 +1.6 72 +2 +2 1012.2 1007.3
05 21.08 н/о н/о +6.1 +1.8 74 1012.7 1007.8
06 21.08 С 7 н/о н/о +4.0 +3.5 97 -2 -2 1013.0 1008.1
07 21.08 С 5 н/о н/о +3.0 +2.8 99 -3 -3 1013.5 1008.5
08 21.08 ЮЗ 2 н/о н/о +3.9 +2.4 90 +1 +1 1013.8 1008.8
09 21.08 ЮЗ 2 н/о н/о +4.4 +2.7 89 +2 +2 1014.0 1009.0
10 21.08 З 2 н/о н/о +6.2 +1.5 72 +5 +5 1014.0 1009.0
11 21.08 З 1 н/о н/о +8.1 +2.1 66 +9 +9 1014.1 1009.1
12 21.08 СВ 1 н/о н/о +7.6 +3.2 74 +8 +8 1014.6 1009.6

 

Местоположение метеостанции Ikermiuarsuk (Гренландия): широта 61.93 долгота -42.06 высота над уровнем моря 39 м.

В архиве по умолчанию представлена погода в Ikermiuarsuk за последнюю неделю. Архивные данные за месяц целиком и за предыдущие месяцы, начиная с января 2011 года, Вы можете получить, выбрав интересующий диапазон дат из раскрывающегося списка и нажав кнопку "Ввод!".


*Определитесь, кто Вы:
робот инопланетянин человек

Внимание! Время в таблицах - всемирное. Для получения местного времени необходимо прибавить поправку, которая равна -3 ч.

Смотрите также архив погоды в соседних городах и на ближайших метеорологических станциях:

Погода в Narsarsuaq (Гренландия) (200 км)
Погода в Prins Christian Sun (Гренландия) (217 км)
Погода в Qaqortoq (Гренландия) (252 км)
Погода в Angisoq (Гренландия) (275 км)
Погода в Ikermiit (Гренландия) (329 км)
Погода в Nunarsuit (Гренландия) (362 км)
Погода в Paamiut (Гренландия) (397 км)
Погода в Ukiivik (Гренландия) (438 км)
Погода в Tasiilaq (Гренландия) (462 км)
Погода в Kulusuk (Гренландия) (472 км)

Пояснения к столбцам:

Ветер - указаны скорость ветра в м/с - средняя за 10 мин, порывы в срок и между сроками (в фигурных скобках) и направление, откуда дует ветер: С - северный, СВ - северо-восточный, В - восточный, ЮВ - юго-восточный, Ю - южный, ЮЗ - юго-западный, З - западный, СЗ - северо-западный.
Видимость - горизонтальная дальность видимости в метрах или километрах. При видимости от 1 до 10 км при отсутствии осадков обычно наблюдается дымка, при ухудшении видимости до 1 км и менее - туман. В сухую погоду видимость может ухудшаться дымом, пылью или мглою.
Явления - указаны атмосферные явления, наблюдавшиеся в срок или в последний час перед сроком; фигурными скобками обозначены явления, наблюдавшиеся между сроками (за 1-3 часа до срока); квадратными скобками обозначены град или гололедные отложения с указанием их диаметра в мм.
Облачность - указаны через наклонную черту общая и нижняя облачность в баллах и высота нижней границы облаков в метрах; квадратными скобками обозначены формы облаков: Ci - перистые, Cs - перисто-слоистые, Cc - перисто-кучевые, Ac - высококучевые, As - высокослоистые, Sc - слоисто-кучевые, Ns - слоисто-дождевые, Cu - кучевые, Cb - кучево-дождевые. Подробнее классификацию облаков см. в Атласе облаков (PDF).
T - Температура воздуха - температура, измеренная на высоте 2 м над землей.
Td - Температура точки росы - температура, при понижении до которой содержащийся в воздухе водяной пар достигнет насыщения.
f - Относительная влажность воздуха - влажноcть воздуха, измеренная на высоте 2 м над землей.
Te - Эффективная температура - температура, которую ощущает одетый по сезону человек в тени. Характеристика душности погоды. При расчете учитывается влияние влажности воздуха и скорости ветра на теплоощущения человека.
Tes - Эффективная температура на солнце - температура, которую ощущает человек, с поправкой на солнечный нагрев. Характеристика знойности погоды. Зависит от высоты солнца над горизонтом, облачности и скорости ветра. Ночью, в пасмурную погоду, а также при ветре 12 м/с и более поправка равна нулю.
P - Атмосферное давление - приведенное к уровню моря атмосферное давление.
Po - Атмосферное давление - измеренное на уровне метеостанции атмосферное давление.
Tmin - Минимальная температура - минимум температуры воздуха на высоте 2 м над землей.
Tmax - Максимальная температура - максимум температуры воздуха на высоте 2 м над землей.
R - Количество осадков - Количество выпавших осадков за период времени, мм. При наведении курсора мыши на число - период времени, за который выпало указанное количество осадков.
R24 - Количество осадков - Количество выпавших осадков за 24 часа, мм.
S - Снежный покров - Высота снежного покрова, см. При наведении курсора мыши на число - состояние снежного покрова и степень покрытия местности в баллах.